TimeCST,TemperatureF,Dew PointF,Humidity,Sea Level PressureIn,VisibilityMPH,Wind Direction,Wind SpeedMPH,Gust SpeedMPH,PrecipitationIn,Events,Conditions,WindDirDegrees,DateUTC
12:15 AM,54.5,47.7,78,29.99,10.0,South,6.9,-,N/A,,Overcast,180,2012-12-07 06:15:00
12:35 AM,54.5,46.9,76,29.99,10.0,South,5.8,-,N/A,,Mostly Cloudy,170,2012-12-07 06:35:00
12:55 AM,54.0,46.4,76,29.99,10.0,South,5.8,-,N/A,,Scattered Clouds,170,2012-12-07 06:55:00
1:15 AM,54.0,46.2,75,29.98,10.0,South,4.6,-,N/A,,Scattered Clouds,180,2012-12-07 07:15:00
1:35 AM,53.8,45.9,75,29.98,10.0,South,8.1,-,N/A,,Scattered Clouds,180,2012-12-07 07:35:00
1:55 AM,53.8,45.5,74,29.98,10.0,South,6.9,-,N/A,,Clear,170,2012-12-07 07:55:00
2:15 AM,53.6,45.5,74,29.98,10.0,South,6.9,-,N/A,,Clear,180,2012-12-07 08:15:00
2:35 AM,53.4,45.5,75,29.98,10.0,South,5.8,-,N/A,,Clear,180,2012-12-07 08:35:00
2:55 AM,53.2,45.5,75,29.98,10.0,South,6.9,-,N/A,,Clear,190,2012-12-07 08:55:00
3:15 AM,53.6,45.5,74,29.98,10.0,South,5.8,-,N/A,,Clear,190,2012-12-07 09:15:00
3:35 AM,53.6,45.5,74,29.97,10.0,South,6.9,-,N/A,,Clear,180,2012-12-07 09:35:00
3:55 AM,53.4,45.5,75,29.97,10.0,South,6.9,-,N/A,,Clear,180,2012-12-07 09:55:00
4:15 AM,53.2,45.5,75,29.97,10.0,South,6.9,-,N/A,,Mostly Cloudy,170,2012-12-07 10:15:00
4:35 AM,53.4,45.7,75,29.97,10.0,South,4.6,-,N/A,,Overcast,180,2012-12-07 10:35:00
4:55 AM,53.6,45.9,75,29.97,10.0,South,5.8,-,N/A,,Overcast,180,2012-12-07 10:55:00
5:15 AM,53.6,46.0,76,29.97,10.0,South,6.9,-,N/A,,Overcast,180,2012-12-07 11:15:00
5:35 AM,53.6,46.4,77,29.97,10.0,South,5.8,-,N/A,,Overcast,180,2012-12-07 11:35:00
5:55 AM,53.6,46.4,77,29.97,10.0,South,6.9,-,N/A,,Overcast,190,2012-12-07 11:55:00
6:15 AM,53.6,46.8,78,29.98,10.0,South,9.2,-,N/A,,Overcast,190,2012-12-07 12:15:00
6:35 AM,53.8,46.8,77,29.98,10.0,South,6.9,-,N/A,,Mostly Cloudy,190,2012-12-07 12:35:00
6:55 AM,53.8,46.9,78,29.98,10.0,South,6.9,-,N/A,,Mostly Cloudy,190,2012-12-07 12:55:00
7:15 AM,54.0,47.3,78,29.98,10.0,South,5.8,-,N/A,,Overcast,190,2012-12-07 13:15:00
7:35 AM,54.1,47.3,78,29.98,10.0,South,6.9,-,N/A,,Overcast,190,2012-12-07 13:35:00
7:55 AM,54.3,47.7,78,29.98,10.0,South,8.1,-,N/A,,Overcast,190,2012-12-07 13:55:00
8:15 AM,54.7,47.8,78,29.98,10.0,South,6.9,-,N/A,,Overcast,190,2012-12-07 14:15:00
8:35 AM,55.0,48.2,78,29.98,10.0,South,11.5,-,N/A,,Overcast,190,2012-12-07 14:35:00
8:55 AM,55.9,48.4,76,29.98,10.0,South,11.5,-,N/A,,Overcast,190,2012-12-07 14:55:00
9:15 AM,57.7,49.3,73,29.98,10.0,South,11.5,18.4,N/A,,Overcast,180,2012-12-07 15:15:00
9:35 AM,58.5,49.6,72,29.98,10.0,South,12.7,20.7,N/A,,Overcast,190,2012-12-07 15:35:00
9:55 AM,59.5,50.2,71,29.98,10.0,SW,11.5,17.3,N/A,,Overcast,220,2012-12-07 15:55:00
10:15 AM,60.6,50.4,69,29.97,10.0,SSW,12.7,18.4,N/A,,Overcast,210,2012-12-07 16:15:00
10:35 AM,60.1,50.4,70,29.97,10.0,SSW,10.4,-,N/A,,Overcast,210,2012-12-07 16:35:00
10:55 AM,60.3,50.7,71,29.96,10.0,SSW,12.7,-,N/A,,Overcast,200,2012-12-07 16:55:00
11:15 AM,60.1,50.9,72,29.95,10.0,SSW,8.1,-,N/A,,Overcast,200,2012-12-07 17:15:00
11:35 AM,60.1,51.1,72,29.94,10.0,SSW,12.7,18.4,N/A,,Overcast,200,2012-12-07 17:35:00
11:55 AM,60.4,51.1,71,29.93,10.0,SW,9.2,-,N/A,,Overcast,220,2012-12-07 17:55:00
12:15 PM,60.6,51.4,72,29.93,10.0,SW,11.5,23.0,N/A,,Overcast,220,2012-12-07 18:15:00
12:35 PM,60.6,51.8,73,29.92,10.0,SSW,9.2,16.1,N/A,,Overcast,210,2012-12-07 18:35:00
1:15 PM,61.3,51.8,71,29.90,10.0,SW,11.5,-,N/A,,Overcast,220,2012-12-07 19:15:00
1:35 PM,61.0,51.8,72,29.90,10.0,SSW,10.4,-,N/A,,Overcast,210,2012-12-07 19:35:00
1:55 PM,61.0,51.8,72,29.90,10.0,SSW,5.8,9.2,N/A,,Overcast,210,2012-12-07 19:55:00
2:15 PM,61.2,51.8,71,29.89,10.0,SSW,8.1,-,N/A,,Overcast,210,2012-12-07 20:15:00
2:35 PM,61.3,51.8,71,29.89,10.0,SSW,5.8,-,N/A,,Overcast,210,2012-12-07 20:35:00
2:55 PM,61.3,51.8,71,29.89,10.0,SSW,10.4,-,N/A,,Overcast,200,2012-12-07 20:55:00
3:15 PM,61.7,52.0,70,29.89,10.0,SSW,8.1,-,N/A,,Overcast,210,2012-12-07 21:15:00
3:35 PM,61.7,52.0,70,29.89,10.0,SSW,8.1,-,N/A,,Overcast,210,2012-12-07 21:35:00
3:55 PM,61.3,52.2,72,29.89,10.0,SSW,6.9,-,N/A,,Overcast,200,2012-12-07 21:55:00
4:15 PM,61.2,52.2,72,29.89,10.0,South,9.2,-,N/A,,Overcast,190,2012-12-07 22:15:00
4:35 PM,61.0,52.2,73,29.90,10.0,SW,6.9,-,N/A,,Overcast,220,2012-12-07 22:35:00
4:55 PM,60.8,52.2,73,29.90,10.0,SSW,6.9,-,N/A,,Overcast,210,2012-12-07 22:55:00
5:15 PM,60.8,52.2,73,29.90,10.0,SSW,6.9,-,N/A,,Overcast,210,2012-12-07 23:15:00
5:35 PM,60.4,52.2,74,29.90,10.0,SSW,5.8,-,N/A,,Overcast,200,2012-12-07 23:35:00
5:55 PM,59.9,52.0,75,29.89,10.0,SSW,5.8,-,N/A,,Overcast,200,2012-12-07 23:55:00
6:15 PM,59.4,52.0,77,29.89,10.0,SSW,4.6,-,N/A,,Mostly Cloudy,200,2012-12-08 00:15:00
6:35 PM,59.0,52.0,78,29.90,10.0,SSW,6.9,-,N/A,,Mostly Cloudy,210,2012-12-08 00:35:00
7:15 PM,59.5,52.5,78,29.91,10.0,SSW,5.8,-,N/A,,Overcast,200,2012-12-08 01:15:00
7:35 PM,59.5,52.7,78,29.91,10.0,SSW,5.8,-,N/A,,Overcast,210,2012-12-08 01:35:00
7:55 PM,59.5,53.1,79,29.91,10.0,SSW,6.9,-,N/A,,Overcast,210,2012-12-08 01:55:00
8:15 PM,59.5,53.1,79,29.92,10.0,SSW,6.9,-,N/A,,Overcast,210,2012-12-08 02:15:00
8:35 PM,59.4,53.2,80,29.92,10.0,SSW,6.9,-,N/A,,Overcast,200,2012-12-08 02:35:00
8:55 PM,59.0,53.1,81,29.91,10.0,SSW,5.8,-,N/A,,Mostly Cloudy,200,2012-12-08 02:55:00
9:15 PM,58.5,52.9,82,29.92,10.0,SSW,4.6,-,N/A,,Mostly Cloudy,210,2012-12-08 03:15:00
9:55 PM,58.3,53.1,83,29.91,10.0,SSW,5.8,-,N/A,,Overcast,200,2012-12-08 03:55:00
10:15 PM,58.8,53.1,81,29.91,10.0,SSW,6.9,-,N/A,,Overcast,210,2012-12-08 04:15:00
10:35 PM,59.2,53.1,80,29.92,10.0,SW,6.9,-,N/A,,Overcast,220,2012-12-08 04:35:00
10:55 PM,59.2,53.1,80,29.92,10.0,SSW,5.8,-,N/A,,Overcast,210,2012-12-08 04:55:00
11:15 PM,59.0,52.9,80,29.92,10.0,SSW,6.9,-,N/A,,Overcast,210,2012-12-08 05:15:00
11:35 PM,58.5,52.7,81,29.91,10.0,SSW,4.6,-,N/A,,Mostly Cloudy,210,2012-12-08 05:35:00
11:55 PM,57.7,52.7,83,29.91,10.0,SSW,4.6,-,N/A,,Scattered Clouds,210,2012-12-08 05:55:00